"startDT [UTC]","vpos","CH4 [ppm]","stdev(CH4) [ppm]","CO2 [ppm]","stdev(CO2) [ppm]","H2O_reported [%]","stdev(H2O_reported)","CavityPressure [torr]","CavityTemp [C]","OutletValve","CH4_dry [ppm]","CO2_dry [ppm]","DasTemp [C]","EtalonTemp [C]","WarmBoxTemp [C]","MPVPosition","T_ECpre [C]","T_EC1 [C]","T_EC2 [C]","p_inlet [hPa]","p_in [hPa]","p_out [hPa]","T_inlet [C]","RH_inlet [%]","dwpt_inlet [C]","T_vent [C]","RH_vent [%]","dwpt_vent [C]","flow_vent [l min-1]","flow_inlet [l min-1]","dwpt_sample [C]","T_room [C]"
2015-05-30 00:00:00,0.0,1.90455,0.00033,402.549,0.027,0.5824,0.0011,140.001,45.000,34232.23259,1.91567,405.418,32.315,45.068,45.000,0.00,0.09,-272.72,-272.78,-5,981,-4,22.6,16.1,-4.4,22.3,16.6,-4.2,5.73,1.96,-5.8,26.8
2015-05-30 00:01:00,0.0,1.90431,0.00038,402.525,0.034,0.5847,0.0024,139.999,45.000,34230.31300,1.91548,405.406,32.313,45.068,45.000,0.00,0.09,-272.73,-272.78,-6,981,-4,22.6,16.1,-4.4,22.3,16.6,-4.2,5.73,1.96,-5.8,26.8
2015-05-30 00:02:00,0.0,1.90459,0.00043,402.577,0.029,0.5768,0.0024,139.997,45.000,34231.11637,1.91557,405.420,32.313,45.068,45.000,0.00,0.09,-272.72,-272.78,-6,981,-4,22.6,15.9,-4.5,22.3,16.5,-4.3,5.73,1.97,-5.8,26.8
2015-05-30 00:03:00,0.0,1.90465,0.00042,402.513,0.024,0.5778,0.0023,139.999,45.000,34232.74298,1.91570,405.361,32.315,45.068,45.000,0.00,0.09,-272.71,-272.78,-6,981,-4,22.6,16.0,-4.5,22.3,16.5,-4.3,5.73,1.96,-5.8,26.8
2015-05-30 00:04:00,0.0,1.90463,0.00047,402.490,0.037,0.5793,0.0017,139.998,45.000,34232.72007,1.91566,405.343,32.313,45.068,45.000,0.00,0.09,-272.72,-272.78,-6,981,-4,22.6,16.0,-4.5,22.3,16.5,-4.3,5.73,1.96,-5.8,26.8
2015-05-30 00:05:00,0.0,1.90474,0.00029,402.545,0.033,0.5801,0.0017,139.999,45.000,34233.90451,1.91579,405.401,32.313,45.068,45.000,0.00,0.09,-272.72,-272.78,-6,982,-4,22.6,16.0,-4.5,22.3,16.5,-4.3,5.73,1.97,-5.8,26.8
2015-05-30 00:06:00,0.0,1.90474,0.00033,402.556,0.024,0.5806,0.0011,140.001,45.000,34233.13003,1.91582,405.420,32.313,45.068,45.000,0.00,0.09,-272.72,-272.78,-6,982,-4,22.6,16.0,-4.4,22.3,16.5,-4.3,5.73,1.96,-5.8,26.8
2015-05-30 00:07:00,0.0,1.90449,0.00046,402.514,0.025,0.5844,0.0023,139.999,45.000,34233.60794,1.91562,405.393,32.314,45.068,45.000,0.00,0.09,-272.72,-272.78,-6,981,-4,22.6,16.1,-4.4,22.3,16.6,-4.2,5.73,1.97,-5.8,26.7
2015-05-30 00:08:00,0.0,1.90497,0.00024,402.528,0.024,0.5812,0.0025,139.995,45.000,34233.32348,1.91608,405.391,32.313,45.068,45.000,0.00,0.09,-272.73,-272.78,-6,981,-4,22.6,16.1,-4.4,22.3,16.6,-4.2,5.73,1.97,-5.8,26.7
2015-05-30 00:09:00,0.0,1.90505,0.00014,402.530,0.029,0.5803,0.0021,139.999,45.000,34235.42508,1.91612,405.391,32.310,45.068,45.000,0.00,0.09,-272.72,-272.78,-6,982,-4,22.6,16.0,-4.5,22.3,16.5,-4.3,5.73,1.96,-5.8,26.8
2015-05-30 00:10:00,0.0,1.90479,0.00025,402.527,0.031,0.5797,0.0016,140.000,45.000,34233.49296,1.91587,405.384,32.313,45.068,45.000,0.00,0.09,-272.73,-272.78,-6,981,-3,22.6,16.0,-4.5,22.3,16.5,-4.3,5.73,1.96,-5.8,26.8
2015-05-30 00:11:00,0.0,1.90501,0.00044,402.538,0.046,0.5748,0.0031,139.997,45.000,34233.61293,1.91596,405.369,32.313,45.068,45.000,0.00,0.09,-272.73,-272.78,-6,981,-4,22.6,15.8,-4.6,22.3,16.4,-4.4,5.73,1.97,-5.8,26.8
2015-05-30 00:12:00,0.0,1.90492,0.00024,402.578,0.020,0.5690,0.0013,140.000,45.000,34234.55854,1.91579,405.381,32.311,45.068,45.000,0.00,0.09,-272.72,-272.78,-5,981,-3,22.6,15.7,-4.8,22.3,16.2,-4.6,5.73,1.96,-5.8,26.8
2015-05-30 00:13:00,0.0,1.90478,0.00038,402.556,0.048,0.5711,0.0027,139.999,45.000,34234.12915,1.91568,405.372,32.312,45.068,45.000,0.00,0.09,-272.72,-272.77,-6,981,-4,22.6,15.8,-4.7,22.3,16.2,-4.5,5.73,1.97,-5.8,26.8
2015-05-30 00:14:00,0.0,1.90522,0.00033,402.551,0.034,0.5727,0.0028,139.999,45.000,34232.67003,1.91611,405.369,32.309,45.068,45.000,0.00,0.09,-272.72,-272.78,-6,981,-3,22.6,15.8,-4.6,22.3,16.3,-4.5,5.73,1.96,-5.8,26.7
2015-05-30 00:15:00,0.0,1.90533,0.00034,402.593,0.024,0.5660,0.0015,140.000,45.000,34232.97787,1.91611,405.382,32.313,45.068,45.000,0.00,0.09,-272.72,-272.78,-5,981,-4,22.7,15.6,-4.8,22.3,16.1,-4.6,5.73,1.97,-5.8,26.8
2015-05-30 00:16:00,0.0,1.90549,0.00027,402.611,0.032,0.5689,0.0029,140.001,45.000,34233.29959,1.91635,405.411,32.301,45.068,45.000,0.00,0.09,-272.72,-272.78,-5,981,-4,22.7,15.7,-4.7,22.3,16.1,-4.6,5.73,1.96,-5.8,26.7
2015-05-30 00:17:00,0.0,1.90527,0.00036,402.544,0.026,0.5810,0.0049,139.998,45.000,34233.89728,1.91637,405.407,32.312,45.068,45.000,0.00,0.09,-272.72,-272.79,-5,981,-4,22.7,16.1,-4.4,22.3,16.5,-4.3,5.73,1.97,-5.8,26.7
2015-05-30 00:18:00,0.0,1.90484,0.00021,402.493,0.029,0.5900,0.0013,140.001,45.000,34233.41176,1.91613,405.401,32.313,45.068,45.000,0.00,0.09,-272.73,-272.79,-6,982,-4,22.6,16.3,-4.2,22.3,16.8,-4.1,5.73,1.97,-5.8,26.7
2015-05-30 00:19:00,0.0,1.90473,0.00033,402.507,0.034,0.5887,0.0014,140.001,45.000,34233.99077,1.91593,405.408,32.302,45.068,45.000,0.00,0.09,-272.72,-272.78,-5,981,-3,22.6,16.2,-4.3,22.3,16.8,-4.1,5.73,1.97,-5.8,26.8
2015-05-30 00:20:00,0.0,1.90530,0.00030,402.557,0.023,0.5832,0.0022,140.000,45.000,34232.40199,1.91643,405.432,32.298,45.068,45.000,0.00,0.09,-272.72,-272.78,-6,981,-4,22.6,16.1,-4.4,22.3,16.6,-4.2,5.73,1.97,-5.8,26.7
2015-05-30 00:21:00,0.0,1.90469,0.00023,402.531,0.028,0.5848,0.0027,140.000,45.000,34234.56071,1.91590,405.413,32.272,45.068,45.000,0.00,0.09,-272.73,-272.79,-6,981,-4,22.7,16.1,-4.4,22.3,16.6,-4.2,5.73,1.96,-5.8,26.8
2015-05-30 00:22:00,0.0,1.90494,0.00041,402.526,0.032,0.5814,0.0019,140.001,45.000,34235.31574,1.91603,405.393,32.262,45.068,45.000,0.00,0.09,-272.72,-272.78,-6,981,-3,22.7,16.1,-4.4,22.3,16.6,-4.2,5.73,1.96,-5.8,26.8
2015-05-30 00:23:00,0.0,1.90437,0.00035,402.637,0.192,0.5883,0.0024,139.997,45.000,34233.83773,1.91560,405.536,32.275,45.068,45.000,0.00,0.09,-272.72,-272.77,-6,981,-4,22.7,16.3,-4.2,22.3,16.7,-4.1,5.73,1.97,-5.8,26.8
2015-05-30 00:24:00,0.0,1.90401,0.00059,402.455,0.050,0.5907,0.0027,139.998,45.000,34234.30509,1.91535,405.369,32.290,45.068,45.000,0.00,0.09,-272.72,-272.78,-6,981,-4,22.6,16.3,-4.2,22.3,16.8,-4.1,5.73,1.97,-5.8,26.8
2015-05-30 00:25:00,0.0,1.90373,0.00022,402.460,0.036,0.5809,0.0061,140.002,45.000,34236.49575,1.91478,405.320,32.307,45.068,45.000,0.00,0.09,-272.73,-272.79,-6,982,-4,22.6,16.0,-4.4,22.3,16.6,-4.2,5.73,1.96,-5.8,26.8
2015-05-30 00:26:00,0.0,1.90328,0.00046,402.456,0.049,0.5806,0.0027,140.001,45.000,34237.23235,1.91440,405.319,32.313,45.068,45.000,0.00,0.09,-272.71,-272.77,-6,981,-4,22.6,16.0,-4.5,22.3,16.5,-4.3,5.73,1.97,-5.8,26.8
2015-05-30 00:27:00,0.0,1.90295,0.00040,402.420,0.050,0.5784,0.0034,139.998,45.000,34237.17671,1.91395,405.270,32.313,45.068,45.000,0.00,0.09,-272.72,-272.78,-6,981,-4,22.7,15.9,-4.5,22.3,16.5,-4.3,5.73,1.97,-5.8,26.7
2015-05-30 00:28:00,0.0,1.90327,0.00033,402.451,0.048,0.5784,0.0043,140.002,45.000,34237.83503,1.91431,405.301,32.313,45.068,45.000,0.00,0.09,-272.72,-272.78,-6,982,-4,22.7,16.0,-4.5,22.3,16.4,-4.4,5.73,1.97,-5.8,26.7
2015-05-30 00:29:00,0.0,1.90277,0.00027,402.365,0.023,0.5910,0.0022,140.001,45.000,34237.89003,1.91405,405.276,32.325,45.068,45.000,0.00,0.09,-272.72,-272.78,-6,981,-4,22.6,16.3,-4.2,22.3,16.8,-4.1,5.73,1.97,-5.8,26.8
2015-05-30 00:30:00,0.0,1.90340,0.00054,402.391,0.027,0.5872,0.0023,139.994,45.000,34233.24092,1.91452,405.284,32.317,45.068,45.000,0.00,0.09,-272.72,-272.77,-6,981,-4,22.6,16.2,-4.3,22.3,16.7,-4.1,5.73,1.96,-5.8,26.8
2015-05-30 00:31:00,0.0,1.90371,0.00032,402.393,0.036,0.5897,0.0021,140.004,45.000,34232.18706,1.91503,405.298,32.313,45.068,45.000,0.00,0.09,-272.73,-272.79,-5,981,-4,22.7,16.3,-4.2,22.4,16.8,-4.1,5.73,1.97,-5.8,26.8
2015-05-30 00:32:00,0.0,1.90354,0.00037,402.399,0.045,0.5884,0.0026,139.998,45.000,34230.05461,1.91473,405.297,32.315,45.068,45.000,0.00,0.09,-272.72,-272.78,-6,982,-4,22.7,16.2,-4.3,22.4,16.7,-4.1,5.73,1.96,-5.8,26.8
2015-05-30 00:33:00,0.0,1.90306,0.00055,402.429,0.037,0.5819,0.0027,139.999,45.000,34231.36425,1.91425,405.300,32.318,45.068,45.000,0.00,0.09,-272.72,-272.78,-6,982,-4,22.7,16.0,-4.5,22.3,16.6,-4.3,5.73,1.97,-5.8,26.8
2015-05-30 00:34:00,0.0,1.90358,0.00059,402.446,0.044,0.5761,0.0025,140.001,45.000,34231.43050,1.91448,405.282,32.313,45.068,45.000,0.00,0.09,-272.72,-272.79,-6,981,-3,22.7,15.8,-4.6,22.4,16.4,-4.4,5.73,1.97,-5.8,26.7
2015-05-30 00:35:00,0.0,1.90417,0.00040,402.456,0.029,0.5723,0.0026,139.997,45.000,34229.46493,1.91508,405.275,32.313,45.068,45.000,0.00,0.09,-272.72,-272.78,-6,981,-4,22.7,15.8,-4.6,22.4,16.3,-4.5,5.73,1.97,-5.8,26.8
2015-05-30 00:36:00,0.0,1.90463,0.00042,402.457,0.028,0.5778,0.0018,139.997,45.000,34229.09517,1.91561,405.300,32.313,45.068,45.000,0.00,0.09,-272.72,-272.77,-6,981,-4,22.7,15.9,-4.5,22.4,16.4,-4.4,5.73,1.97,-5.8,26.8
2015-05-30 00:37:00,0.0,1.90446,0.00021,402.491,0.016,0.5777,0.0023,140.000,45.000,34228.32058,1.91550,405.338,32.313,45.068,45.000,0.00,0.09,-272.73,-272.78,-6,981,-4,22.7,15.9,-4.5,22.4,16.4,-4.4,5.73,1.96,-5.8,26.8
2015-05-30 00:38:00,0.0,1.90424,0.00025,402.447,0.022,0.5848,0.0029,140.001,45.000,34230.34602,1.91540,405.327,32.314,45.068,45.000,0.00,0.09,-272.73,-272.79,-6,981,-4,22.7,16.1,-4.3,22.4,16.6,-4.2,5.73,1.97,-5.8,26.8
2015-05-30 00:39:00,0.0,1.90425,0.00032,402.423,0.033,0.5882,0.0025,139.999,45.000,34230.81359,1.91549,405.322,32.313,45.068,45.000,0.00,0.09,-272.72,-272.78,-6,981,-4,22.7,16.3,-4.2,22.4,16.7,-4.1,5.73,1.97,-5.8,26.8
2015-05-30 00:40:00,0.0,1.90420,0.00025,402.398,0.033,0.5929,0.0020,139.996,45.000,34227.70815,1.91552,405.321,32.315,45.068,45.000,0.00,0.09,-272.71,-272.78,-6,981,-4,22.7,16.4,-4.1,22.4,16.9,-4.0,5.73,1.96,-5.8,26.8
2015-05-30 00:41:00,0.0,1.90269,0.00039,402.304,0.031,0.5916,0.0023,139.998,45.000,34232.30491,1.91405,405.221,32.321,45.068,45.000,0.00,0.09,-272.72,-272.79,-6,981,-4,22.7,16.4,-4.2,22.4,16.9,-4.0,5.73,1.97,-5.8,26.8
2015-05-30 00:42:00,0.0,1.90259,0.00050,402.332,0.035,0.5884,0.0024,140.000,45.000,34231.22098,1.91381,405.232,32.331,45.068,45.000,0.00,0.09,-272.72,-272.78,-6,981,-4,22.7,16.2,-4.3,22.4,16.7,-4.1,5.73,1.97,-5.8,26.8
2015-05-30 00:43:00,0.0,1.90246,0.00029,402.316,0.032,0.5850,0.0028,140.001,45.000,34232.90695,1.91360,405.194,32.328,45.068,45.000,0.00,0.09,-272.72,-272.78,-6,981,-4,22.7,16.1,-4.4,22.4,16.6,-4.2,5.73,1.96,-5.8,26.8
2015-05-30 00:44:00,0.0,1.90248,0.00033,402.300,0.032,0.5877,0.0016,140.000,45.000,34232.87107,1.91367,405.196,32.329,45.068,45.000,0.00,0.09,-272.72,-272.78,-5,981,-4,22.6,16.2,-4.3,22.4,16.7,-4.1,5.73,1.96,-5.8,26.8
2015-05-30 00:45:00,0.0,1.90273,0.00038,402.326,0.026,0.5818,0.0013,140.002,45.000,34232.86807,1.91386,405.194,32.326,45.068,45.000,0.00,0.09,-272.73,-272.78,-6,982,-4,22.7,16.0,-4.4,22.4,16.5,-4.2,5.73,1.97,-5.8,26.9
2015-05-30 00:46:00,0.0,1.90277,0.00032,402.347,0.041,0.5810,0.0011,140.000,45.000,34232.83500,1.91383,405.210,32.337,45.068,45.000,0.00,0.09,-272.72,-272.78,-5,981,-4,22.7,15.9,-4.5,22.4,16.5,-4.3,5.73,1.96,-5.8,26.9
2015-05-30 00:47:00,0.0,1.90234,0.00063,402.328,0.029,0.5855,0.0023,140.000,45.000,34235.42883,1.91350,405.209,32.348,45.068,45.000,0.00,0.09,-272.72,-272.78,-6,982,-4,22.7,16.2,-4.3,22.4,16.6,-4.2,5.73,1.97,-5.8,26.9
2015-05-30 00:48:00,0.0,1.90234,0.00033,402.299,0.027,0.5926,0.0037,139.999,45.000,34233.74878,1.91365,405.218,32.348,45.068,45.000,0.00,0.09,-272.73,-272.79,-6,982,-4,22.7,16.3,-4.2,22.4,16.8,-4.0,5.73,1.97,-5.8,26.9
2015-05-30 00:49:00,0.0,1.90192,0.00031,402.294,0.048,0.5944,0.0019,140.002,45.000,34235.36054,1.91326,405.225,32.355,45.068,45.000,0.00,0.09,-272.72,-272.78,-6,982,-4,22.7,16.4,-4.1,22.4,16.9,-3.9,5.73,1.97,-5.7,26.9
2015-05-30 00:50:00,0.0,1.90176,0.00046,402.288,0.035,0.5911,0.0021,139.998,45.000,34235.65931,1.91302,405.200,32.341,45.068,45.000,0.00,0.09,-272.72,-272.78,-6,982,-4,22.7,16.3,-4.2,22.4,16.8,-4.0,5.73,1.97,-5.8,26.9
2015-05-30 00:51:00,0.0,1.90181,0.00027,402.285,0.043,0.5896,0.0022,140.000,45.000,34234.11530,1.91307,405.191,32.330,45.068,45.000,0.00,0.09,-272.72,-272.78,-6,982,-4,22.7,16.2,-4.2,22.4,16.8,-4.0,5.73,1.97,-5.8,26.9
2015-05-30 00:52:00,0.0,1.90239,0.00028,402.324,0.017,0.5824,0.0021,140.002,45.000,34233.69519,1.91346,405.191,32.317,45.068,45.000,0.00,0.09,-272.72,-272.78,-6,982,-4,22.7,16.0,-4.4,22.4,16.6,-4.2,5.73,1.96,-5.8,26.7
2015-05-30 00:53:00,0.0,1.90207,0.00042,402.336,0.029,0.5833,0.0019,140.002,45.000,34233.24983,1.91318,405.209,32.313,45.068,45.000,0.00,0.09,-272.72,-272.77,-6,982,-4,22.7,16.0,-4.4,22.4,16.5,-4.2,5.73,1.97,-5.7,26.8
2015-05-30 00:54:00,0.0,1.90203,0.00031,402.389,0.128,0.5889,0.0031,140.002,45.000,34231.35071,1.91323,405.282,32.315,45.068,45.000,0.00,0.09,-272.72,-272.78,-6,982,-4,22.7,16.2,-4.3,22.4,16.7,-4.1,5.73,1.96,-5.8,26.8
2015-05-30 00:55:00,0.0,1.90193,0.00043,402.331,0.057,0.5953,0.0017,140.002,45.000,34231.15609,1.91330,405.271,32.320,45.068,45.000,0.00,0.09,-272.72,-272.79,-6,982,-4,22.7,16.4,-4.1,22.4,16.9,-4.0,5.73,1.97,-5.8,26.8
2015-05-30 00:56:00,0.0,1.90163,0.00030,402.296,0.033,0.5912,0.0046,140.001,45.000,34232.23139,1.91291,405.211,32.320,45.068,45.000,0.00,0.09,-272.72,-272.79,-6,982,-4,22.7,16.3,-4.2,22.4,16.8,-4.0,5.73,1.97,-5.8,26.8
2015-05-30 00:57:00,0.0,1.90179,0.00030,402.319,0.015,0.5830,0.0015,140.001,45.000,34230.89338,1.91290,405.189,32.340,45.068,45.000,0.00,0.09,-272.72,-272.78,-5,981,-3,22.7,16.0,-4.4,22.4,16.5,-4.2,5.73,1.97,-5.8,26.9
2015-05-30 00:58:00,0.0,1.90144,0.00044,402.315,0.028,0.5825,0.0020,139.999,45.000,34233.03425,1.91257,405.187,32.368,45.068,45.000,0.00,0.09,-272.72,-272.78,-5,981,-4,22.7,16.0,-4.4,22.4,16.5,-4.3,5.73,1.97,-5.7,26.9
2015-05-30 00:59:00,0.0,1.90159,0.00037,402.298,0.041,0.5874,0.0036,139.996,45.000,34232.35996,1.91275,405.189,32.368,45.068,45.000,0.00,0.09,-272.72,-272.78,-5,982,-4,22.7,16.2,-4.3,22.4,16.6,-4.2,5.73,1.96,-5.8,26.8
2015-05-30 01:00:00,0.0,1.90156,0.00042,402.259,0.023,0.5922,0.0026,140.005,45.000,34235.73606,1.91287,405.177,32.362,45.068,45.000,0.00,0.09,-272.72,-272.78,-5,982,-4,22.7,16.3,-4.2,22.4,16.8,-4.0,5.73,1.97,-5.7,26.8
2015-05-30 01:01:00,0.0,1.90127,0.00028,402.282,0.039,0.5880,0.0029,140.002,45.000,34233.58777,1.91248,405.178,32.329,45.068,45.000,0.00,0.09,-272.73,-272.78,-6,981,-4,22.7,16.2,-4.2,22.4,16.7,-4.1,5.73,1.96,-5.7,26.8
2015-05-30 01:02:00,0.0,1.90144,0.00034,402.262,0.029,0.5894,0.0012,139.999,45.000,34231.18386,1.91268,405.164,32.314,45.068,45.000,0.00,0.09,-272.73,-272.78,-5,981,-3,22.7,16.2,-4.2,22.4,16.7,-4.1,5.73,1.97,-5.8,26.8
2015-05-30 01:03:00,0.0,1.90129,0.00030,402.253,0.025,0.5897,0.0021,139.998,45.000,34233.04310,1.91251,405.159,32.315,45.068,45.000,0.00,0.09,-272.72,-272.78,-6,982,-4,22.7,16.2,-4.2,22.4,16.7,-4.1,5.73,1.97,-5.8,26.9
2015-05-30 01:04:00,0.0,1.90074,0.00030,402.227,0.024,0.5920,0.0020,139.998,45.000,34232.38593,1.91207,405.143,32.334,45.068,45.000,0.00,0.09,-272.72,-272.78,-6,982,-4,22.7,16.3,-4.2,22.4,16.8,-4.0,5.73,1.98,-5.7,26.8
2015-05-30 01:05:00,0.0,1.90073,0.00039,402.271,0.030,0.5877,0.0036,139.999,45.000,34231.80730,1.91192,405.168,32.368,45.068,45.000,0.00,0.09,-272.73,-272.78,-6,982,-4,22.7,16.1,-4.3,22.4,16.7,-4.1,5.73,1.97,-5.8,26.9
2015-05-30 01:06:00,0.0,1.90047,0.00043,402.278,0.030,0.5852,0.0022,140.002,45.000,34234.11697,1.91163,405.160,32.335,45.068,45.000,0.00,0.09,-272.72,-272.78,-6,982,-4,22.7,16.1,-4.4,22.4,16.6,-4.2,5.73,1.96,-5.7,26.8
2015-05-30 01:07:00,0.0,1.90014,0.00030,402.248,0.029,0.5905,0.0031,139.999,45.000,34235.48543,1.91138,405.153,32.350,45.068,45.000,0.00,0.09,-272.72,-272.77,-6,982,-4,22.7,16.2,-4.2,22.4,16.7,-4.1,5.73,1.96,-5.7,26.9
2015-05-30 01:08:00,0.0,1.90014,0.00032,402.219,0.025,0.5944,0.0019,140.000,45.000,34233.89741,1.91149,405.151,32.346,45.068,45.000,0.00,0.09,-272.72,-272.78,-5,982,-4,22.7,16.3,-4.1,22.4,16.8,-4.0,5.73,1.96,-5.7,26.9
2015-05-30 01:09:00,0.0,1.90040,0.00047,402.236,0.034,0.5876,0.0027,139.997,45.000,34231.39362,1.91156,405.129,32.359,45.068,45.000,0.00,0.09,-272.72,-272.78,-6,981,-4,22.7,16.1,-4.3,22.4,16.7,-4.1,5.73,1.97,-5.7,26.9
2015-05-30 01:10:00,0.0,1.90062,0.00033,402.260,0.029,0.5849,0.0021,140.003,45.000,34233.82452,1.91172,405.141,32.372,45.068,45.000,0.00,0.09,-272.71,-272.78,-6,982,-4,22.7,16.0,-4.4,22.4,16.6,-4.2,5.73,1.97,-5.7,26.9
2015-05-30 01:11:00,0.0,1.90045,0.00039,402.280,0.031,0.5826,0.0023,140.003,45.000,34235.77871,1.91156,405.149,32.373,45.068,45.000,0.00,0.09,-272.72,-272.78,-5,982,-4,22.7,16.0,-4.4,22.4,16.5,-4.2,5.73,1.96,-5.7,26.9
2015-05-30 01:12:00,0.0,1.90063,0.00055,402.265,0.034,0.5830,0.0022,140.000,45.000,34233.98489,1.91168,405.136,32.375,45.068,45.000,0.00,0.09,-272.72,-272.79,-6,981,-4,22.7,16.0,-4.4,22.4,16.5,-4.2,5.73,1.97,-5.7,26.8
2015-05-30 01:13:00,0.0,1.90151,0.00048,402.251,0.037,0.5873,0.0024,139.998,45.000,34232.48424,1.91266,405.146,32.375,45.068,45.000,0.00,0.09,-272.72,-272.78,-6,982,-4,22.7,16.1,-4.3,22.4,16.6,-4.2,5.73,1.96,-5.7,26.9
2015-05-30 01:14:00,0.0,1.90181,0.00036,402.244,0.031,0.5909,0.0025,140.000,45.000,34233.50425,1.91305,405.153,32.375,45.068,45.000,0.00,0.09,-272.71,-272.78,-5,981,-3,22.7,16.3,-4.2,22.4,16.7,-4.0,5.73,1.97,-5.7,26.8
2015-05-30 01:15:00,0.0,1.90203,0.00032,402.272,0.020,0.5895,0.0025,140.000,45.000,34233.68142,1.91329,405.174,32.375,45.068,45.000,0.00,0.09,-272.73,-272.78,-6,982,-3,22.7,16.2,-4.2,22.4,16.7,-4.1,5.73,1.96,-5.7,26.9
2015-05-30 01:16:00,0.0,1.90181,0.00031,402.280,0.039,0.5857,0.0015,139.999,45.000,34232.80468,1.91297,405.166,32.375,45.068,45.000,0.00,0.09,-272.72,-272.78,-6,982,-4,22.7,16.1,-4.3,22.4,16.6,-4.1,5.73,1.96,-5.7,26.8
2015-05-30 01:17:00,0.0,1.90177,0.00046,402.284,0.032,0.5879,0.0019,140.000,45.000,34233.71868,1.91294,405.179,32.376,45.068,45.000,0.00,0.09,-272.71,-272.77,-5,982,-4,22.7,16.1,-4.3,22.5,16.6,-4.1,5.73,1.97,-5.7,26.8
2015-05-30 01:18:00,0.0,1.90122,0.00048,402.256,0.019,0.5859,0.0032,139.998,45.000,34236.91842,1.91243,405.143,32.375,45.068,45.000,0.00,0.09,-272.73,-272.78,-6,982,-1,22.7,16.1,-4.3,22.5,16.6,-4.1,5.73,1.96,-5.7,26.8
2015-05-30 01:19:00,0.0,1.90105,0.00033,402.243,0.031,0.5860,0.0027,139.998,45.000,34237.00999,1.91222,405.128,32.375,45.068,45.000,0.00,0.09,-272.72,-272.78,-8,982,-6,22.7,16.1,-4.3,22.5,16.5,-4.2,5.73,1.97,-5.7,26.8
2015-05-30 01:20:00,0.0,1.90123,0.00027,402.244,0.036,0.5860,0.0026,140.001,45.000,34238.71769,1.91238,405.130,32.375,45.068,45.000,0.00,0.09,-272.72,-272.77,-5,982,-2,22.7,16.0,-4.4,22.5,16.5,-4.2,5.73,1.97,-5.7,26.8
2015-05-30 01:21:00,0.0,1.90099,0.00034,402.226,0.033,0.5883,0.0011,140.000,45.000,34237.39312,1.91218,405.124,32.372,45.068,45.000,0.00,0.09,-272.72,-272.78,-7,980,-1,22.7,16.2,-4.3,22.5,16.6,-4.1,5.73,1.96,-5.7,26.9
2015-05-30 01:22:00,0.0,1.90095,0.00032,402.254,0.027,0.5821,0.0031,140.000,45.000,34237.52066,1.91206,405.122,32.375,45.068,45.000,0.00,0.09,-272.73,-272.79,-7,983,-7,22.7,16.0,-4.4,22.5,16.5,-4.2,5.73,1.96,-5.7,26.9
2015-05-30 01:23:00,0.0,1.90060,0.00029,402.238,0.031,0.5893,0.0043,139.996,45.000,34235.92231,1.91179,405.139,32.375,45.068,45.000,0.00,0.09,-272.72,-272.78,-5,983,-8,22.8,16.2,-4.2,22.5,16.6,-4.1,5.73,1.97,-5.7,26.9
2015-05-30 01:24:00,0.0,1.90073,0.00023,402.197,0.032,0.5979,0.0022,139.995,45.000,34234.90979,1.91213,405.142,32.375,45.068,45.000,0.00,0.09,-272.72,-272.78,-8,981,-4,22.8,16.4,-4.1,22.5,16.9,-3.9,5.73,1.97,-5.7,26.9
2015-05-30 01:25:00,0.0,1.90081,0.00022,402.182,0.034,0.5956,0.0017,139.998,45.000,34237.97434,1.91214,405.118,32.375,45.068,45.000,0.00,0.09,-272.72,-272.78,-6,984,-3,22.8,16.3,-4.1,22.5,16.8,-3.9,5.73,1.96,-5.7,26.9
2015-05-30 01:26:00,0.0,1.90067,0.00029,402.287,0.040,0.5844,0.0033,140.003,45.000,34237.87992,1.91185,405.165,32.375,45.068,45.000,0.00,0.09,-272.72,-272.78,-6,980,-3,22.8,16.0,-4.4,22.5,16.6,-4.2,5.73,1.97,-5.7,26.9
2015-05-30 01:27:00,0.0,1.90071,0.00042,402.248,0.032,0.5855,0.0012,140.001,45.000,34239.24829,1.91183,405.131,32.377,45.068,45.000,0.00,0.09,-272.72,-272.79,-6,981,-4,22.8,16.0,-4.3,22.5,16.5,-4.2,5.73,1.97,-5.7,26.9
2015-05-30 01:28:00,0.0,1.90090,0.00048,402.227,0.029,0.5879,0.0033,139.998,45.000,34238.77269,1.91207,405.123,32.375,45.068,45.000,0.00,0.09,-272.72,-272.79,-6,980,-4,22.8,16.1,-4.2,22.5,16.6,-4.1,5.73,1.96,-5.7,26.9
2015-05-30 01:29:00,0.0,1.90105,0.00027,402.217,0.023,0.5922,0.0016,140.004,45.000,34239.28782,1.91234,405.133,32.384,45.068,45.000,0.00,0.09,-272.72,-272.78,-6,983,-4,22.8,16.2,-4.2,22.5,16.7,-4.0,5.73,1.97,-5.7,26.8
2015-05-30 01:30:00,0.0,1.90120,0.00034,402.233,0.024,0.5876,0.0021,140.000,45.000,34238.32728,1.91241,405.130,32.375,45.068,45.000,0.00,0.09,-272.72,-272.78,-6,982,-3,22.8,16.1,-4.3,22.5,16.6,-4.1,5.73,1.96,-5.7,26.8
2015-05-30 01:31:00,0.0,1.90095,0.00041,402.222,0.028,0.5883,0.0030,139.995,45.000,34237.35397,1.91216,405.119,32.375,45.068,45.000,0.00,0.09,-272.73,-272.78,-6,982,-4,22.8,16.1,-4.2,22.5,16.6,-4.1,5.73,1.97,-5.7,26.9
2015-05-30 01:32:00,0.0,1.90118,0.00041,402.238,0.029,0.5895,0.0022,139.999,45.000,34237.31275,1.91240,405.140,32.375,45.068,45.000,0.00,0.09,-272.73,-272.78,-6,982,-3,22.8,16.1,-4.2,22.5,16.6,-4.1,5.73,1.96,-5.7,26.9
2015-05-30 01:33:00,0.0,1.90116,0.00032,402.221,0.027,0.5889,0.0019,139.997,45.000,34236.31179,1.91233,405.122,32.375,45.068,45.000,0.00,0.09,-272.72,-272.78,-6,982,-4,22.8,16.2,-4.2,22.5,16.7,-4.1,5.73,1.96,-5.7,26.9
2015-05-30 01:34:00,0.0,1.90144,0.00040,402.241,0.031,0.5894,0.0029,139.999,45.000,34233.85921,1.91264,405.143,32.376,45.068,45.000,0.00,0.09,-272.72,-272.78,-6,982,-4,22.8,16.1,-4.2,22.5,16.7,-4.1,5.73,1.96,-5.7,26.8
2015-05-30 01:35:00,0.0,1.90139,0.00029,402.265,0.019,0.5819,0.0022,139.995,45.000,34234.63554,1.91253,405.131,32.378,45.068,45.000,0.00,0.09,-272.72,-272.78,-5,982,-4,22.8,15.9,-4.4,22.5,16.5,-4.2,5.73,1.96,-5.7,26.9
2015-05-30 01:36:00,0.0,1.90115,0.00049,402.253,0.033,0.5853,0.0021,139.999,45.000,34235.27372,1.91231,405.136,32.376,45.068,45.000,0.00,0.09,-272.72,-272.78,-6,982,-4,22.8,16.0,-4.3,22.5,16.5,-4.2,5.73,1.96,-5.7,26.9
2015-05-30 01:37:00,0.0,1.90058,0.00025,402.236,0.022,0.5893,0.0018,139.998,45.000,34236.75610,1.91181,405.137,32.385,45.068,45.000,0.00,0.09,-272.71,-272.78,-6,982,-4,22.8,16.1,-4.2,22.5,16.6,-4.1,5.73,1.96,-5.7,26.9
2015-05-30 01:38:00,0.0,1.90047,0.00029,402.239,0.048,0.5914,0.0019,140.000,45.000,34240.24730,1.91172,405.151,32.386,45.068,45.000,0.00,0.09,-272.72,-272.78,-6,982,-4,22.8,16.2,-4.2,22.5,16.6,-4.0,5.73,1.97,-5.7,26.8
2015-05-30 01:39:00,0.0,1.90106,0.00033,402.212,0.026,0.5959,0.0021,139.998,45.000,34237.39854,1.91240,405.150,32.376,45.068,45.000,0.00,0.09,-272.73,-272.78,-6,982,-4,22.8,16.3,-4.1,22.5,16.8,-3.9,5.73,1.97,-5.7,26.8
2015-05-30 01:40:00,0.0,1.90080,0.00034,402.207,0.036,0.5873,0.0030,139.999,45.000,34240.77626,1.91203,405.099,32.377,45.068,45.000,0.00,0.09,-272.72,-272.78,-6,982,-4,22.8,16.1,-4.3,22.5,16.6,-4.0,5.73,1.96,-5.7,26.8
2015-05-30 01:41:00,0.0,1.90100,0.00039,402.239,0.044,0.5806,0.0029,140.001,45.000,34238.29199,1.91205,405.098,32.376,45.068,45.000,0.00,0.09,-272.72,-272.78,-6,982,-4,22.8,15.9,-4.4,22.5,16.4,-4.3,5.73,1.97,-5.7,26.8
2015-05-30 01:42:00,0.0,1.90080,0.00031,402.276,0.030,0.5816,0.0017,140.001,45.000,34236.98109,1.91186,405.138,32.376,45.068,45.000,0.00,0.09,-272.73,-272.79,-6,982,-4,22.8,15.9,-4.4,22.5,16.4,-4.3,5.73,1.96,-5.7,26.8
2015-05-30 01:43:00,0.0,1.90112,0.00037,402.290,0.030,0.5782,0.0018,140.000,45.000,34237.03486,1.91212,405.138,32.382,45.068,45.000,0.00,0.09,-272.72,-272.78,-6,982,-4,22.8,15.8,-4.5,22.5,16.3,-4.3,5.73,1.96,-5.7,26.9
2015-05-30 01:44:00,0.0,1.90102,0.00043,402.288,0.034,0.5793,0.0010,140.001,45.000,34237.92431,1.91206,405.141,32.386,45.068,45.000,0.00,0.09,-272.72,-272.77,-6,982,-4,22.8,15.8,-4.5,22.5,16.3,-4.3,5.73,1.96,-5.7,26.9
2015-05-30 01:45:00,0.0,1.90088,0.00031,402.269,0.029,0.5768,0.0020,140.004,45.000,34239.35405,1.91185,405.109,32.415,45.068,45.000,0.00,0.09,-272.72,-272.78,-6,982,-4,22.8,15.7,-4.5,22.5,16.2,-4.4,5.73,1.96,-5.7,26.9
2015-05-30 01:46:00,0.0,1.90059,0.00038,402.294,0.027,0.5781,0.0015,139.998,45.000,34237.85733,1.91165,405.140,32.404,45.068,45.000,0.00,0.09,-272.72,-272.79,-6,982,-4,22.8,15.7,-4.6,22.5,16.2,-4.4,5.73,1.96,-5.7,26.9